Time,TemperatureF,DewpointF,PressureIn,WindDirection,WindDirectionDegrees,WindSpeedMPH,WindSpeedGustMPH,Humidity,HourlyPrecipIn,Conditions,Clouds,dailyrainin,SoftwareType,DateUTC
2013-07-10 00:00:00,78.0,69.0,-100.00,SSW,194,2.0,5.0,74,0.00,,,-99.99,,2013-07-10 04:00:00,
2013-07-10 00:33:00,78.0,69.0,-100.00,SSW,194,2.0,5.0,74,0.00,,,-99.99,,2013-07-10 04:33:00,
2013-07-10 00:43:00,78.0,69.0,-100.00,SSW,194,2.0,5.0,74,0.00,,,-99.99,,2013-07-10 04:43:00,
2013-07-10 00:52:00,78.0,69.0,-100.00,SSW,194,2.0,5.0,74,0.00,,,-99.99,,2013-07-10 04:52:00,
2013-07-10 01:00:00,78.0,70.0,-100.00,South,189,2.0,6.0,78,0.00,,,-99.99,,2013-07-10 05:00:00,
2013-07-10 01:32:00,78.0,70.0,-100.00,South,189,2.0,6.0,78,0.00,,,-99.99,,2013-07-10 05:32:00,
2013-07-10 01:42:00,78.0,70.0,-100.00,South,189,2.0,6.0,78,0.00,,,-99.99,,2013-07-10 05:42:00,
2013-07-10 01:53:00,78.0,70.0,-100.00,South,189,2.0,6.0,78,0.00,,,-99.99,,2013-07-10 05:53:00,
2013-07-10 02:00:00,76.0,70.0,-100.00,South,185,5.0,8.0,80,0.02,,,-99.99,,2013-07-10 06:00:00,
2013-07-10 02:33:00,76.0,70.0,-100.00,South,185,5.0,8.0,80,0.02,,,-99.99,,2013-07-10 06:33:00,
2013-07-10 02:42:00,76.0,70.0,-100.00,South,185,5.0,8.0,80,0.02,,,-99.99,,2013-07-10 06:42:00,
2013-07-10 02:52:00,76.0,70.0,-100.00,South,185,5.0,8.0,80,0.02,,,-99.99,,2013-07-10 06:52:00,
2013-07-10 03:00:00,75.0,68.0,-100.00,SSW,195,5.0,9.0,81,0.00,,,-99.99,,2013-07-10 07:00:00,
2013-07-10 03:33:00,75.0,68.0,-100.00,SSW,195,5.0,9.0,81,0.00,,,-99.99,,2013-07-10 07:33:00,
2013-07-10 03:43:00,75.0,68.0,-100.00,SSW,195,5.0,9.0,81,0.00,,,-99.99,,2013-07-10 07:43:00,
2013-07-10 03:53:00,75.0,68.0,-100.00,SSW,195,5.0,9.0,81,0.00,,,-99.99,,2013-07-10 07:53:00,
2013-07-10 04:00:00,74.0,69.0,-100.00,SW,227,3.0,8.0,84,0.00,,,-99.99,,2013-07-10 08:00:00,
2013-07-10 04:33:00,74.0,69.0,-100.00,SW,227,3.0,8.0,84,0.00,,,-99.99,,2013-07-10 08:33:00,
2013-07-10 04:42:00,74.0,69.0,-100.00,SW,227,3.0,8.0,84,0.00,,,-99.99,,2013-07-10 08:42:00,
2013-07-10 04:53:00,74.0,69.0,-100.00,SW,227,3.0,8.0,84,0.00,,,-99.99,,2013-07-10 08:53:00,
2013-07-10 05:00:00,74.0,69.0,-100.00,WSW,248,4.0,6.0,86,0.00,,,-99.99,,2013-07-10 09:00:00,
2013-07-10 05:33:00,74.0,69.0,-100.00,WSW,248,4.0,6.0,86,0.00,,,-99.99,,2013-07-10 09:33:00,
2013-07-10 05:43:00,74.0,69.0,-100.00,WSW,248,4.0,6.0,86,0.00,,,-99.99,,2013-07-10 09:43:00,
2013-07-10 05:53:00,74.0,69.0,-100.00,WSW,248,4.0,6.0,86,0.00,,,-99.99,,2013-07-10 09:53:00,
2013-07-10 06:00:00,-999.0,-99.9,-100.00,South,190,1.0,10.0,-999,-99.99,,,-99.99,,2013-07-10 10:00:00,
2013-07-10 06:32:00,75.0,70.0,-100.00,South,190,1.0,10.0,86,0.00,,,-99.99,,2013-07-10 10:32:00,
2013-07-10 06:51:00,-999.0,-99.9,-100.00,South,190,1.0,10.0,-999,-99.99,,,-99.99,,2013-07-10 10:51:00,
2013-07-10 07:00:00,76.0,71.0,-100.00,SW,214,4.0,7.0,85,0.00,,,-99.99,,2013-07-10 11:00:00,
2013-07-10 07:33:00,76.0,71.0,-100.00,SW,214,4.0,7.0,85,0.00,,,-99.99,,2013-07-10 11:33:00,
2013-07-10 07:43:00,76.0,71.0,-100.00,SW,214,4.0,7.0,85,0.00,,,-99.99,,2013-07-10 11:43:00,
2013-07-10 07:52:00,76.0,71.0,-100.00,SW,214,4.0,7.0,85,0.00,,,-99.99,,2013-07-10 11:52:00,
2013-07-10 08:00:00,78.0,72.0,-100.00,SSW,196,5.0,10.0,80,0.00,,,-99.99,,2013-07-10 12:00:00,
2013-07-10 08:43:00,78.0,72.0,-100.00,SSW,196,5.0,10.0,80,0.00,,,-99.99,,2013-07-10 12:43:00,
2013-07-10 08:53:00,78.0,72.0,-100.00,SSW,196,5.0,10.0,80,0.00,,,-99.99,,2013-07-10 12:53:00,
2013-07-10 09:00:00,82.0,73.0,-100.00,WSW,237,5.0,12.0,74,0.00,,,-99.99,,2013-07-10 13:00:00,
2013-07-10 09:32:00,82.0,73.0,-100.00,WSW,237,5.0,12.0,74,0.00,,,-99.99,,2013-07-10 13:32:00,
2013-07-10 09:43:00,82.0,73.0,-100.00,WSW,237,5.0,12.0,74,0.00,,,-99.99,,2013-07-10 13:43:00,
2013-07-10 09:52:00,82.0,73.0,-100.00,WSW,237,5.0,12.0,74,0.00,,,-99.99,,2013-07-10 13:52:00,
2013-07-10 10:00:00,83.0,73.0,-100.00,SW,222,8.0,13.0,72,0.00,,,-99.99,,2013-07-10 14:00:00,
2013-07-10 10:33:00,83.0,73.0,-100.00,SW,222,8.0,13.0,72,0.00,,,-99.99,,2013-07-10 14:33:00,
2013-07-10 10:44:00,83.0,73.0,-100.00,SW,222,8.0,13.0,72,0.00,,,-99.99,,2013-07-10 14:44:00,
2013-07-10 10:53:00,83.0,73.0,-100.00,SW,222,8.0,13.0,72,0.00,,,-99.99,,2013-07-10 14:53:00,
2013-07-10 11:00:00,82.0,73.0,-100.00,SW,233,3.0,14.0,73,0.00,,,-99.99,,2013-07-10 15:00:00,
2013-07-10 11:34:00,82.0,73.0,-100.00,SW,233,3.0,14.0,73,0.00,,,-99.99,,2013-07-10 15:34:00,
2013-07-10 11:43:00,82.0,73.0,-100.00,SW,233,3.0,14.0,73,0.00,,,-99.99,,2013-07-10 15:43:00,
2013-07-10 11:52:00,82.0,73.0,-100.00,SW,233,3.0,14.0,73,0.00,,,-99.99,,2013-07-10 15:52:00,
2013-07-10 12:00:00,85.0,75.0,-100.00,WSW,254,5.0,13.0,72,0.00,,,-99.99,,2013-07-10 16:00:00,
2013-07-10 12:44:00,85.0,75.0,-100.00,WSW,254,5.0,13.0,72,0.00,,,-99.99,,2013-07-10 16:44:00,
2013-07-10 12:53:00,85.0,75.0,-100.00,WSW,254,5.0,13.0,72,0.00,,,-99.99,,2013-07-10 16:53:00,
2013-07-10 13:00:00,87.0,72.0,-100.00,SW,231,5.0,17.0,62,0.00,,,-99.99,,2013-07-10 17:00:00,
2013-07-10 13:43:00,87.0,72.0,-100.00,SW,231,5.0,17.0,62,0.00,,,-99.99,,2013-07-10 17:43:00,
2013-07-10 13:53:00,87.0,72.0,-100.00,SW,231,5.0,17.0,62,0.00,,,-99.99,,2013-07-10 17:53:00,
2013-07-10 14:00:00,76.0,73.0,-100.00,NW,313,1.0,24.0,89,0.22,,,-99.99,,2013-07-10 18:00:00,
2013-07-10 14:53:00,76.0,73.0,-100.00,NW,313,1.0,24.0,89,0.22,,,-99.99,,2013-07-10 18:53:00,
2013-07-10 15:00:00,84.0,73.0,-100.00,SW,229,4.0,11.0,68,0.04,,,-99.99,,2013-07-10 19:00:00,
2013-07-10 15:32:00,84.0,73.0,-100.00,SW,229,4.0,11.0,68,0.04,,,-99.99,,2013-07-10 19:32:00,
2013-07-10 15:42:00,84.0,73.0,-100.00,SW,229,4.0,11.0,68,0.04,,,-99.99,,2013-07-10 19:42:00,
2013-07-10 15:53:00,84.0,73.0,-100.00,SW,229,4.0,11.0,68,0.04,,,-99.99,,2013-07-10 19:53:00,
2013-07-10 16:00:00,87.0,71.0,-100.00,WNW,285,3.0,20.0,60,0.00,,,-99.99,,2013-07-10 20:00:00,
2013-07-10 16:32:00,87.0,71.0,-100.00,WNW,285,3.0,20.0,60,0.00,,,-99.99,,2013-07-10 20:32:00,
2013-07-10 16:43:00,87.0,71.0,-100.00,WNW,285,3.0,20.0,60,0.00,,,-99.99,,2013-07-10 20:43:00,
2013-07-10 16:52:00,87.0,71.0,-100.00,WNW,285,3.0,20.0,60,0.00,,,-99.99,,2013-07-10 20:52:00,
2013-07-10 17:00:00,87.0,70.0,-100.00,SW,234,5.0,21.0,59,0.00,,,-99.99,,2013-07-10 21:00:00,
2013-07-10 17:32:00,87.0,70.0,-100.00,SW,234,5.0,21.0,59,0.00,,,-99.99,,2013-07-10 21:32:00,
2013-07-10 17:42:00,87.0,70.0,-100.00,SW,234,5.0,21.0,59,0.00,,,-99.99,,2013-07-10 21:42:00,
2013-07-10 17:52:00,87.0,70.0,-100.00,SW,234,5.0,21.0,59,0.00,,,-99.99,,2013-07-10 21:52:00,
2013-07-10 18:00:00,86.0,68.0,-100.00,SSW,197,10.0,21.0,54,0.00,,,-99.99,,2013-07-10 22:00:00,
2013-07-10 18:33:00,86.0,68.0,-100.00,SSW,197,10.0,21.0,54,0.00,,,-99.99,,2013-07-10 22:33:00,
2013-07-10 18:43:00,86.0,68.0,-100.00,SSW,197,10.0,21.0,54,0.00,,,-99.99,,2013-07-10 22:43:00,
2013-07-10 18:53:00,86.0,68.0,-100.00,SSW,197,10.0,21.0,54,0.00,,,-99.99,,2013-07-10 22:53:00,
2013-07-10 19:00:00,86.0,69.0,-100.00,WSW,249,11.0,21.0,58,0.00,,,-99.99,,2013-07-10 23:00:00,
2013-07-10 19:32:00,86.0,69.0,-100.00,WSW,249,11.0,21.0,58,0.00,,,-99.99,,2013-07-10 23:32:00,
2013-07-10 19:43:00,86.0,69.0,-100.00,WSW,249,11.0,21.0,58,0.00,,,-99.99,,2013-07-10 23:43:00,
2013-07-10 19:44:00,86.0,69.0,-100.00,WSW,249,11.0,21.0,58,0.00,,,-99.99,,2013-07-10 23:44:00,
2013-07-10 19:52:00,86.0,69.0,-100.00,WSW,249,11.0,21.0,58,0.00,,,-99.99,,2013-07-10 23:52:00,
2013-07-10 20:00:00,84.0,72.0,-100.00,SSW,208,4.0,15.0,67,0.00,,,-99.99,,2013-07-11 00:00:00,
2013-07-10 20:32:00,84.0,72.0,-100.00,SSW,208,4.0,15.0,67,0.00,,,-99.99,,2013-07-11 00:32:00,
2013-07-10 20:43:00,84.0,72.0,-100.00,SSW,208,4.0,15.0,67,0.00,,,-99.99,,2013-07-11 00:43:00,
2013-07-10 20:52:00,84.0,72.0,-100.00,SSW,208,4.0,15.0,67,0.00,,,-99.99,,2013-07-11 00:52:00,
2013-07-10 21:00:00,83.0,73.0,-100.00,SSW,211,5.0,15.0,72,0.00,,,-99.99,,2013-07-11 01:00:00,
2013-07-10 21:32:00,83.0,73.0,-100.00,SSW,211,5.0,15.0,72,0.00,,,-99.99,,2013-07-11 01:32:00,
2013-07-10 21:43:00,83.0,73.0,-100.00,SSW,211,5.0,15.0,72,0.00,,,-99.99,,2013-07-11 01:43:00,
2013-07-10 21:52:00,83.0,73.0,-100.00,SSW,211,5.0,15.0,72,0.00,,,-99.99,,2013-07-11 01:52:00,
2013-07-10 22:00:00,82.0,74.0,-100.00,SW,230,4.0,13.0,76,0.00,,,-99.99,,2013-07-11 02:00:00,
2013-07-10 22:32:00,82.0,74.0,-100.00,SW,230,4.0,13.0,76,0.00,,,-99.99,,2013-07-11 02:32:00,
2013-07-10 22:44:00,82.0,74.0,-100.00,SW,230,4.0,13.0,76,0.00,,,-99.99,,2013-07-11 02:44:00,
2013-07-10 22:53:00,82.0,74.0,-100.00,SW,230,4.0,13.0,76,0.00,,,-99.99,,2013-07-11 02:53:00,
2013-07-10 23:00:00,81.0,73.0,-100.00,SW,220,4.0,11.0,78,0.00,,,-99.99,,2013-07-11 03:00:00,
2013-07-10 23:42:00,81.0,73.0,-100.00,SW,220,4.0,11.0,78,0.00,,,-99.99,,2013-07-11 03:42:00,
2013-07-10 23:53:00,81.0,73.0,-100.00,SW,220,4.0,11.0,78,0.00,,,-99.99,,2013-07-11 03:53:00,